| time (UTC) | temp C | wind direction | speed KPH | gust KPH | rain 1hr cm | rain 24hr cm | rain mn cm | humidity % | barometer mb |
| 20260504081803 | 20 | 305 | 9.7 | 17.7 | 0.00 | 0.00 | 0.00 | 63 | 1012.5 |
| 20260504080903 | 20 | 306 | 9.7 | 20.9 | 0.00 | 0.00 | 0.00 | 63 | 1012.7 |
| 20260504050003 | 17 | 313 | 9.7 | 20.9 | 0.00 | 0.00 | 0.00 | 71 | 1013.4 |
| 20260504045403 | 17 | 308 | 14.5 | 29.0 | 0.00 | 0.00 | 0.00 | 72 | 1013.5 |
| 20260504044504 | 17 | 303 | 19.3 | 30.6 | 0.00 | 0.00 | 0.00 | 72 | 1013.5 |
| 20260504043603 | 17 | 311 | 14.5 | 29.0 | 0.00 | 0.00 | 0.00 | 73 | 1013.0 |
| 20260504042703 | 17 | 307 | 14.5 | 24.1 | 0.00 | 0.00 | 0.00 | 73 | 1013.0 |
| 20260504041804 | 17 | 319 | 12.9 | 25.7 | 0.00 | 0.00 | 0.00 | 73 | 1012.9 |
| 20260504040903 | 17 | 315 | 12.9 | 29.0 | 0.00 | 0.00 | 0.00 | 74 | 1012.3 |
| 20260504040004 | 16 | 309 | 14.5 | 25.7 | 0.00 | 0.00 | 0.00 | 74 | 1012.1 |
| 20260504035424 | 16 | 316 | 11.3 | 25.7 | 0.00 | 0.00 | 0.00 | 75 | 1012.1 |
| 20260504034504 | 16 | 321 | 11.3 | 24.1 | 0.00 | 0.00 | 0.00 | 76 | 1012.2 |
| 20260504033604 | 16 | 327 | 12.9 | 27.4 | 0.00 | 0.00 | 0.00 | 76 | 1012.3 |
| 20260504032725 | 16 | 313 | 14.5 | 27.4 | 0.00 | 0.00 | 0.00 | 76 | 1012.3 |
| 20260504031824 | 16 | 310 | 12.9 | 22.5 | 0.00 | 0.00 | 0.00 | 75 | 1012.3 |
| 20260504030904 | 16 | 305 | 12.9 | 22.5 | 0.00 | 0.00 | 0.00 | 76 | 1012.4 |
| 20260504030003 | 16 | 319 | 8.0 | 16.1 | 0.00 | 0.00 | 0.00 | 76 | 1012.2 |
| 20260504025403 | 15 | 308 | 11.3 | 17.7 | 0.00 | 0.00 | 0.00 | 77 | 1012.2 |
| 20260504024503 | 16 | 309 | 9.7 | 17.7 | 0.00 | 0.00 | 0.00 | 76 | 1012.4 |
| 20260504023603 | 16 | 305 | 9.7 | 16.1 | 0.00 | 0.00 | 0.00 | 76 | 1012.0 |
| 20260504022724 | 16 | 316 | 8.0 | 16.1 | 0.00 | 0.00 | 0.00 | 75 | 1012.0 |
| 20260504021803 | 16 | 312 | 11.3 | 16.1 | 0.00 | 0.00 | 0.00 | 75 | 1011.8 |
| 20260504020904 | 16 | 304 | 8.0 | 16.1 | 0.00 | 0.00 | 0.00 | 73 | 1011.7 |
| 20260504020002 | 16 | 312 | 12.9 | 22.5 | 0.00 | 0.00 | 0.00 | 72 | 1011.5 |
| 20260504015402 | 16 | 310 | 16.1 | 25.7 | 0.00 | 0.00 | 0.00 | 72 | 1011.8 |
| 20260504014503 | 17 | 310 | 14.5 | 25.7 | 0.00 | 0.00 | 0.00 | 71 | 1011.5 |
| 20260504013603 | 17 | 305 | 11.3 | 24.1 | 0.00 | 0.00 | 0.00 | 71 | 1011.5 |
| 20260504012702 | 17 | 310 | 9.7 | 20.9 | 0.00 | 0.00 | 0.00 | 72 | 1011.4 |
| 20260504011823 | 17 | 331 | 9.7 | 25.7 | 0.00 | 0.00 | 0.00 | 71 | 1011.5 |
| 20260504010903 | 17 | 344 | 8.0 | 20.9 | 0.00 | 0.00 | 0.00 | 71 | 1011.5 |
| 20260504010002 | 17 | 320 | 9.7 | 20.9 | 0.00 | 0.00 | 0.00 | 70 | 1011.7 |
| 20260504005402 | 17 | 311 | 11.3 | 20.9 | 0.00 | 0.00 | 0.00 | 70 | 1011.6 |
| 20260504004503 | 17 | 308 | 16.1 | 29.0 | 0.00 | 0.00 | 0.00 | 70 | 1011.5 |
| 20260504003605 | 17 | 308 | 17.7 | 29.0 | 0.00 | 0.00 | 0.00 | 69 | 1011.3 |
| 20260504002702 | 18 | 312 | 11.3 | 22.5 | 0.00 | 0.00 | 0.00 | 70 | 1010.9 |
| 20260504001802 | 18 | 314 | 11.3 | 25.7 | 0.00 | 0.00 | 0.00 | 69 | 1011.1 |
| 20260504000903 | 18 | 307 | 14.5 | 25.7 | 0.00 | 0.00 | 0.00 | 68 | 1011.1 |
| 20260504000024 | 18 | 304 | 20.9 | 35.4 | 0.00 | 0.00 | 0.00 | 68 | 1011.0 |
| 20260503235424 | 18 | 308 | 25.7 | 37.0 | 0.00 | 0.00 | 0.00 | 67 | 1011.4 |
| 20260503234502 | 18 | 312 | 20.9 | 37.0 | 0.00 | 0.00 | 0.00 | 67 | 1010.9 |
| 20260503233603 | 19 | 310 | 22.5 | 35.4 | 0.00 | 0.00 | 0.00 | 67 | 1010.7 |
| 20260503232703 | 19 | 313 | 17.7 | 35.4 | 0.00 | 0.00 | 0.00 | 67 | 1010.6 |
| 20260503231823 | 19 | 320 | 14.5 | 29.0 | 0.00 | 0.00 | 0.00 | 67 | 1010.9 |
| 20260503230902 | 20 | 320 | 11.3 | 33.8 | 0.00 | 0.00 | 0.00 | 68 | 1010.7 |
| 20260503230003 | 20 | 315 | 9.7 | 33.8 | 0.00 | 0.00 | 0.00 | 68 | 1010.6 |
| 20260503225402 | 20 | 323 | 8.0 | 22.5 | 0.00 | 0.00 | 0.00 | 68 | 1011.0 |
| 20260503224502 | 20 | 315 | 17.7 | 30.6 | 0.00 | 0.00 | 0.00 | 67 | 1010.9 |
| 20260503223603 | 21 | 313 | 19.3 | 30.6 | 0.00 | 0.00 | 0.00 | 66 | 1010.4 |
| 20260503222724 | 21 | 316 | 17.7 | 38.6 | 0.00 | 0.00 | 0.00 | 65 | 1009.8 |
| 20260503221803 | 21 | 319 | 12.9 | 27.4 | 0.00 | 0.00 | 0.00 | 64 | 1009.2 |
| 20260503220903 | 22 | 320 | 14.5 | 29.0 | 0.00 | 0.00 | 0.00 | 62 | 1009.3 |
| 20260503220002 | 22 | 318 | 9.7 | 27.4 | 0.00 | 0.00 | 0.00 | 61 | 1009.0 |
| 20260503215402 | 22 | 320 | 9.7 | 22.5 | 0.00 | 0.00 | 0.00 | 61 | 1009.1 |
| 20260503214502 | 22 | 322 | 9.7 | 22.5 | 0.00 | 0.00 | 0.00 | 61 | 1009.1 |
| 20260503213602 | 22 | 317 | 12.9 | 25.7 | 0.00 | 0.00 | 0.00 | 61 | 1009.2 |
| 20260503212703 | 22 | 314 | 19.3 | 35.4 | 0.00 | 0.00 | 0.00 | 62 | 1008.8 |
| 20260503211824 | 23 | 308 | 20.9 | 35.4 | 0.00 | 0.00 | 0.00 | 63 | 1008.9 |
| 20260503210903 | 23 | 312 | 20.9 | 40.2 | 0.00 | 0.00 | 0.00 | 63 | 1007.8 |
| 20260503210003 | 23 | 315 | 20.9 | 35.4 | 0.00 | 0.00 | 0.00 | 64 | 1007.8 |
| 20260503205424 | 23 | 310 | 20.9 | 37.0 | 0.00 | 0.00 | 0.00 | 64 | 1007.8 |
| 20260503204524 | 24 | 307 | 22.5 | 40.2 | 0.00 | 0.00 | 0.00 | 63 | 1007.6 |
| 20260503203603 | 25 | 305 | 27.4 | 46.7 | 0.00 | 0.00 | 0.00 | 61 | 1007.3 |
| 20260503202724 | 26 | 276 | 16.1 | 41.8 | 0.00 | 0.00 | 0.00 | 55 | 1006.8 |
| 20260503201804 | 27 | 224 | 3.2 | 11.3 | 0.00 | 0.00 | 0.00 | 49 | 1006.4 |
| 20260503200903 | 27 | 219 | 6.4 | 12.9 | 0.00 | 0.00 | 0.00 | 49 | 1006.3 |
| 20260503200003 | 27 | 239 | 9.7 | 24.1 | 0.00 | 0.00 | 0.00 | 48 | 1006.0 |
| 20260503195424 | 27 | 237 | 11.3 | 24.1 | 0.00 | 0.00 | 0.00 | 49 | 1006.0 |
| 20260503194503 | 27 | 44 | 1.6 | 9.7 | 0.00 | 0.00 | 0.00 | 47 | 1005.5 |
| 20260503193603 | 27 | 85 | 3.2 | 16.1 | 0.00 | 0.00 | 0.00 | 47 | 1005.0 |
| 20260503192727 | 27 | 13 | 4.8 | 12.9 | 0.00 | 0.00 | 0.00 | 46 | 1004.7 |
| 20260503191824 | 27 | 46 | 3.2 | 12.9 | 0.00 | 0.00 | 0.00 | 46 | 1004.8 |
| 20260503190903 | 27 | 124 | 6.4 | 25.7 | 0.00 | 0.00 | 0.00 | 47 | 1005.0 |
| 20260503190003 | 27 | 118 | 8.0 | 25.7 | 0.00 | 0.00 | 0.00 | 49 | 1005.2 |
| 20260503185424 | 27 | 110 | 4.8 | 14.5 | 0.00 | 0.00 | 0.00 | 50 | 1005.3 |
| 20260503184503 | 27 | 129 | 6.4 | 17.7 | 0.00 | 0.00 | 0.00 | 50 | 1004.7 |
| 20260503183603 | 28 | 188 | 3.2 | 14.5 | 0.00 | 0.00 | 0.00 | 48 | 1004.6 |
| 20260503182703 | 27 | 91 | 1.6 | 6.4 | 0.00 | 0.00 | 0.00 | 52 | 1005.1 |
| 20260503181803 | 27 | 105 | 4.8 | 22.5 | 0.00 | 0.00 | 0.00 | 51 | 1004.4 |
| 20260503180903 | 27 | 136 | 8.0 | 22.5 | 0.00 | 0.00 | 0.00 | 50 | 1004.8 |
| 20260503180004 | 27 | 127 | 11.3 | 25.7 | 0.00 | 0.00 | 0.00 | 55 | 1004.8 |
| 20260503175424 | 27 | 128 | 11.3 | 25.7 | 0.00 | 0.00 | 0.00 | 56 | 1005.1 |
| 20260503174503 | 27 | 118 | 9.7 | 20.9 | 0.00 | 0.00 | 0.00 | 58 | 1005.8 |
| 20260503173603 | 27 | 132 | 12.9 | 24.1 | 0.00 | 0.00 | 0.00 | 59 | 1005.8 |
| 20260503172703 | 27 | 123 | 16.1 | 29.0 | 0.00 | 0.00 | 0.00 | 59 | 1005.4 |
| 20260503171803 | 27 | 117 | 14.5 | 24.1 | 0.00 | 0.00 | 0.00 | 59 | 1004.3 |
| 20260503170903 | 27 | 110 | 12.9 | 22.5 | 0.00 | 0.00 | 0.00 | 58 | 1004.0 |
| 20260503130902 | 29 | 107 | 12.9 | 24.1 | 0.00 | 0.00 | 0.00 | 56 | 1005.6 |